Tracking 29892 objects as of 21-Nov-2024
HD Live streaming from Space Station
objects crossing your sky now

STARLINK-4200

Track STARLINK-4200 now!
10-day predictions
STARLINK-4200 is classified as:


NORAD ID: 52876
Int'l Code: 2022-062AY
Perigee: 545.8 km
Apogee: 547.9 km
Inclination: 53.2 °
Period: 95.4 minutes
Semi major axis: 6917 km
RCS: Unknown
Launch date: June 17, 2022
Source: United States (US)
Launch site: AIR FORCE EASTERN TEST RANGE (AFETR)
Your satellite tracking list
Your tracking list is empty




NASA's NSSDC Master Catalog

Two Line Element Set (TLE):
1 52876U 22062AY  24325.48039547 -.00000438  00000-0 -94488-5 0  9991
2 52876  53.2157 342.9268 0001474  81.2529 278.8630 15.08845116134472
Source of the keplerian elements: AFSPC